Preview of NWS' New Version of Forecast
This preview is not operational and should not be used for support decisions.

Regional Weather Roundup (RWR)

Issued by Gray - Portland, ME (GYX)

                            
000
ASUS41 KGYX 171210
RWRGYX
WEATHER ROUNDUP FOR MAINE AND NEW HAMPSHIRE
NATIONAL WEATHER SERVICE GRAY ME
700 AM EST THU JAN 17 2019

MEZ002-005-006-010-012-015-018-020-021-024-026-027-029-171300-
MAINE
  
CITY           SKY/WX    TMP DP  RH WIND       PRES   REMARKS
PORTLAND       FAIR      10  -1  61 N6        30.33R                  
6HR MIN TEMP:  10; 6HR MAX TEMP:  20;                                

SANFORD        FAIR       8  -4  58 W9        30.32R                  
BAR HARBOR     FAIR       6  -7  54 NW5       30.30R                  
WISCASSET      FAIR       8  -3  61 CALM      30.34R                  
6HR MIN TEMP:   8; 6HR MAX TEMP:  17;                                

ROCKLAND       FAIR       7  -4  60 NW8       30.31R                  
FRYEBURG       FAIR       4 -12  48 W5        30.31R                  
6HR MIN TEMP:   4; 6HR MAX TEMP:  13;                                

LEWISTONAUBURN FAIR       6  -6  57 NW8       30.32R                  
AUGUSTA        FAIR       5  -6  60 NW7       30.31R                  
6HR MIN TEMP:   4; 6HR MAX TEMP:  12;                                

WATERVILLE     FAIR       3  -7  63 MISG      30.28R                  
BANGOR         FAIR       4  -7  60 NW12      30.30R WCI -12          
6HR MIN TEMP:   4; 6HR MAX TEMP:  13;                                

GREENVILLE       N/A     -6 -15  65 NW17G26   30.13R WCI -28          
6HR MIN TEMP:  -6; 6HR MAX TEMP:   0;                                

MILLINOCKET    FAIR      -2 -14  56 NW9G20    30.25R                  
6HR MIN TEMP:  -2; 6HR MAX TEMP:   5; 6HR PCP: TRACE;                

HOULTON        FAIR      -5 -13  68 W6        30.21R                  
6HR MIN TEMP:  -6; 6HR MAX TEMP:   6;                                

PRESQUE ISLE   FAIR      -8 -14  74 W6        30.21R                  
6HR MIN TEMP:  -8; 6HR MAX TEMP:   5;                                

FRENCHVILLE    FAIR     -11 -19  68 NW12      30.12R WCI -31          
6HR MIN TEMP: -11; 6HR MAX TEMP:  -1; 6HR PCP: TRACE;                

CARIBOU        FAIR      -7 -15  68 NW6       30.17R                  
6HR MIN TEMP: -11; 6HR MAX TEMP:   4;                                

$$

NHZ002-005-008-009-011-012-014-171300-
NEW HAMPSHIRE
  
CITY           SKY/WX    TMP DP  RH WIND       PRES   REMARKS
PORTSMOUTH     PTCLDY    11 -10  39 W12       30.33R WCI  -4          
ROCHESTER      FAIR       9  -5  53 NW12      30.31R WCI  -6          
6HR MIN TEMP:   9; 6HR MAX TEMP:  18;                                

NASHUA         FAIR      11   0  61 NW7       30.36R                  
MANCHESTER     FAIR      11  -3  53 N9        30.35R                  
6HR MIN TEMP:  11; 6HR MAX TEMP:  22;                                

CONCORD        FAIR       6  -3  66 N5        30.36R                  
6HR MIN TEMP:   6; 6HR MAX TEMP:  16;                                

LACONIA        FAIR       4  -5  66 S5        30.35R                  
PLYMOUTH       FAIR       0  -6  75 CALM      30.35R                  
BERLIN         FAIR      -1 -10  65 VRB7      30.26R                  
6HR MIN TEMP:  -3; 6HR MAX TEMP:   6;                                

WHITEFIELD     FAIR     -11 -16  78 CALM      30.30R                  
6HR MIN TEMP: -11; 6HR MAX TEMP:   5;                                

JAFFREY        FAIR       9   0  67 CALM      30.28R                  
6HR MIN TEMP:   8; 6HR MAX TEMP:  19;                                

KEENE          FAIR       7   1  76 CALM      30.36R                  
LEBANON        FAIR     -10 -17  71 CALM      30.35R                  
6HR MIN TEMP: -11; 6HR MAX TEMP:  12;                                

MT WASHINGTON  NOT AVBL                                               
$$

VTZ005-007-008-171300-
VERMONT
  
CITY           SKY/WX    TMP DP  RH WIND       PRES   REMARKS
ST JOHNSBURY     N/A     -6 -10  83 MISG      30.35R                  
MONTPELIER     FAIR      -4  -8  83 N3        30.32R                  
BURLINGTON     FAIR       0  -7  72 E6        30.39S                  
$$

MAZ007-012-024-CTZ003-RIZ002-NYZ038-NYZ072-171300-
SOUTHERN NEW ENGLAND AND NY
  
CITY           SKY/WX    TMP DP  RH WIND       PRES   REMARKS
BOSTON         FAIR      18  -3  39 NW12      30.35R WCI   5          
WORCESTER      FAIR      12  -1  56 N5        30.27R                  
NANTUCKET      FAIR      26  13  57 N18       30.30R WCI  13          
PROVIDENCE     MOCLDY    22  -1  36 NW8       30.34R                  
HARTFORD       MOCLDY    18  -3  39 NW6       30.36R                  
ALBANY         FAIR       9  -4  55 N6        30.41R                  
NEW YORK CITY  MOCLDY    26  10  50 NW10      30.37R WCI  16          
$$

ANZ081-ANZ082-ANZ150-NHZ014-MEZ023>029-171300-
COASTAL MARINE OBSERVATIONS
  
STATION/POSITION TIME  TEMP    WIND        PRES    WAVE
                       AIR SEA DIR/SP/G            HT/PER
                 (UTC) (F)     (DEG/KT/KT) (MB)    (FT/S)
MOUNT DESERT ROC 1200   15     300/ 25/ 29 1025.0R
MATINICUS ROCK   1100   13     320/ 23/ 26 1024.3R
ISLE OF SHOALS   1100   15     300/ 18/ 21 1026.4R
JEFFREYS LEDGE   1138      43                N/A     5/ 5
CASHES LEDGE BUO 1150   20 40              1025.3R   7/ 6
$$

.............KEY..............
   WCI - WIND CHILL
   TC  - TEMPERATURE IN CELSIUS
   VSB - VISIBILITY IN MILES
   HX  - HEAT INDEX
   FAIR- INDICATES FEW OR NO CLOUDS BELOW 12,000 FT, WITH NO 
         SIGNIFICANT WEATHER AND/OR OBSTRUCTIONS TO VISIBILITY.